Tracking 20093 objects as of 16-Dec-2019
HD Live streaming from Space Station
objects crossing your sky now

SL-12 R/B(AUX MOTOR) DEB

Track SL-12 R/B(AUX MOTOR) DEB now!
10-day predictions


NORAD ID: 41805
Int'l Code: 2006-062K
Perigee: 484.6 km
Apogee: 18,886.8 km
Inclination: 65.4 °
Period: 337.5 minutes
Semi major axis: 16056 km
RCS: Unknown
Launch date: December 25, 2006
Source: Commonwealth of Independent States (former USSR) (CIS)
Launch site: TYURATAM MISSILE AND SPACE COMPLEX (TTMTR)

Note: This is SATELLITE DEBRIS
aabbcc
Your satellite tracking list
Your tracking list is empty




NASA's NSSDC Master Catalog

Two Line Element Set (TLE):
1 41805U 06062K   19345.51858613  .00000097  00000-0  28213-7 0  9990
2 41805  65.3778 164.5496 5730390 318.7880   9.8046  4.26696673 50161
Source of the keplerian elements: AFSPC